User: anonymous   Login
Location: Grisols
(45.0093°N, 3.1167°E)
Time: 18:20:44
(UTC+00:00)
Language:

Cosmos 2123 Rocket - Orbit

View from above orbital plane
View from above orbital plane
View from above satellite
View from above satellite

Ground track
Ground track

The orbit data is extracted from the following two-line orbital elements,

1 21090U 91007B   19341.54283060  .00000018  00000-0  24838-5 0  9994
2 21090  82.9210 285.8598 0021539  32.3343 327.9129 13.76386379448258
Epoch (UTC): 07 December 2019 13:01:40
Eccentricity: 0.0021539
inclination: 82.9210°
perigee height: 961 km
apogee height: 992 km
right ascension of ascending node: 285.8598°
argument of perigee: 32.3343°
revolutions per day: 13.76386379
mean anomaly at epoch: 327.9129°
orbit number at epoch: 44825

The dashed part of the orbit path shows where the satellite is in the earth's shadow,  

DLR